Belmar-Farmingdale, NJ

5:00 AM EST on November 20, 2019 (GMT -0500)
Allaire

Weather History for KBLM - September, 2019

Change the Weather History Date:

Wednesday, September 4, 2019

  Actual Average Record
Temperature  
Mean Temperature 76 °F -  
Max Temperature 89 °F 75 °F 91 °F (2008)
Min Temperature 64 °F 61 °F 46 °F (1997)
Cooling Degree Days 12    
Growing Degree Days 26 (Base 50)    
Moisture  
Dew Point 68 °F    
Average Humidity 86    
Maximum Humidity 100    
Minimum Humidity 55    
Precipitation  
Precipitation 0.00 in - - ()
Sea Level Pressure  
Sea Level Pressure 29.98 in    
Wind  
Wind Speed 4 mph ()    
Max Wind Speed 16 mph    
Max Gust Speed 22 mph    
Visibility 7.4 miles    
Events      
Averages and records for this station are not official NWS values.
T = Trace of Precipitation, MM = Missing Value Source: Averaged Metar Reports

Daily Weather History Graph

Daily Weather History Graph

Search for Another Location

Airport or City:

Astronomy

Sep. 04, 2019 Rise Set
Actual Time 6:26 AM EDT 7:23 PM EDT
Civil Twilight 5:58 AM EDT 7:51 PM EDT
Nautical Twilight 5:25 AM EDT 8:24 PM EDT
Astronomical Twilight 4:51 AM EDT 8:58 PM EDT
Moon 12:25 PM EDT (9/4) 10:56 PM EDT (9/4)
Length of Visible Light 13h 52m
Length of Day
12h 57m
Waxing Crescent, 34% of the Moon is Illuminated
Sep 4
Waxing Crescent
Sep 5
First Quarter
Sep 14
Full
Sep 21
Last Quarter
Sep 28
New

Hourly Weather History & Observations

Time (EDT) Temp. Heat Index Dew Point Humidity Pressure Visibility Wind Dir Wind Speed Gust Speed Precip Events Conditions
12:56 AM 64.9 °F - 64.0 °F 97% 30.05 in 10.0 mi Calm Calm - N/A   Clear
1:56 AM 66.0 °F - 64.9 °F 96% 30.03 in 10.0 mi SSE 5.8 mph - N/A   Clear
2:56 AM 66.0 °F - 64.9 °F 96% 30.01 in 10.0 mi Calm Calm - N/A   Clear
3:44 AM 64.4 °F - 64.4 °F 100% 29.99 in 7.0 mi Calm Calm - N/A   Scattered Clouds
3:53 AM 64.4 °F - 64.4 °F 100% 29.99 in 7.0 mi South 3.5 mph - N/A   Mostly Cloudy
3:56 AM 64.9 °F - 64.0 °F 97% 30.00 in 7.0 mi Calm Calm - N/A   Mostly Cloudy
4:56 AM 64.9 °F - 64.0 °F 97% 30.02 in 6.0 mi WSW 4.6 mph - N/A   Overcast
5:03 AM 64.4 °F - 64.4 °F 100% 30.02 in 7.0 mi SW 4.6 mph - N/A   Overcast
5:27 AM 64.4 °F - 64.4 °F 100% 30.03 in 1.8 mi WSW 5.8 mph - N/A   Overcast
5:37 AM 64.4 °F - 64.4 °F 100% 30.02 in 1.0 mi SW 4.6 mph - N/A   Overcast
5:47 AM 64.4 °F - 64.4 °F 100% 30.02 in 1.0 mi SSW 5.8 mph - N/A   Overcast
5:56 AM 64.9 °F - 64.9 °F 100% 30.02 in 1.8 mi South 4.6 mph - N/A   Overcast
6:01 AM 66.2 °F - 64.4 °F 94% 30.01 in 3.0 mi South 5.8 mph - N/A   Overcast
6:53 AM 66.2 °F - 66.2 °F 100% 30.02 in 2.0 mi South 4.6 mph - N/A   Overcast
6:56 AM 66.0 °F - 66.0 °F 100% 30.02 in 2.0 mi South 4.6 mph - N/A   Overcast
7:08 AM 66.2 °F - 66.2 °F 100% 30.03 in 4.0 mi SW 4.6 mph - N/A   Overcast
7:26 AM 68.0 °F - 66.2 °F 94% 30.02 in 5.0 mi Calm Calm - N/A   Overcast
7:56 AM 68.0 °F - 66.9 °F 96% 30.01 in 6.0 mi South 4.6 mph - N/A   Overcast
8:29 AM 69.8 °F - 68.0 °F 94% 30.01 in 7.0 mi SSW 6.9 mph - N/A   Overcast
8:56 AM 71.1 °F - 69.1 °F 93% 30.01 in 10.0 mi SSW 9.2 mph - N/A   Overcast
9:31 AM 75.2 °F - 69.8 °F 83% 29.99 in 10.0 mi South 9.2 mph - N/A   Overcast
9:56 AM 77.0 °F - 70.0 °F 79% 29.99 in 10.0 mi SW 9.2 mph - N/A   Scattered Clouds
10:56 AM 80.1 °F 83.2 °F 70.0 °F 71% 29.97 in 10.0 mi SW 10.4 mph - N/A   Clear
11:56 AM 82.9 °F 87.0 °F 70.0 °F 65% 29.94 in 10.0 mi SSW 16.1 mph 21.9 mph N/A   Partly Cloudy
12:56 PM 84.9 °F 89.4 °F 70.0 °F 61% 29.93 in 10.0 mi SW 12.7 mph 20.7 mph N/A   Mostly Cloudy
1:56 PM 88.0 °F 93.8 °F 71.1 °F 57% 29.89 in 10.0 mi SSW 10.4 mph 18.4 mph N/A   Scattered Clouds
2:56 PM 88.0 °F 92.9 °F 70.0 °F 55% 29.88 in 10.0 mi SW 10.4 mph - N/A   Mostly Cloudy
3:56 PM 89.1 °F 95.0 °F 71.1 °F 55% 29.87 in 10.0 mi WSW 9.2 mph - N/A   Mostly Cloudy
4:56 PM 88.0 °F 93.8 °F 71.1 °F 57% 29.87 in 10.0 mi SW 11.5 mph 16.1 mph N/A   Partly Cloudy
5:56 PM 88.0 °F 92.9 °F 70.0 °F 55% 29.88 in 10.0 mi SW 8.1 mph - N/A   Partly Cloudy
6:56 PM 84.0 °F 89.0 °F 71.1 °F 65% 29.89 in 8.0 mi SSE 5.8 mph - N/A   Clear
7:56 PM 81.0 °F 86.7 °F 75.0 °F 82% 29.90 in 10.0 mi SW 3.5 mph - 0.00 in   Overcast
8:56 PM 78.1 °F - 75.0 °F 90% 29.93 in 10.0 mi SSW 6.9 mph - 0.00 in   Overcast
9:56 PM 75.9 °F - 70.0 °F 82% 29.95 in 10.0 mi WSW 5.8 mph - N/A   Clear
10:56 PM 75.0 °F - 70.0 °F 84% 29.96 in 10.0 mi WNW 6.9 mph - N/A   Clear
11:56 PM 73.9 °F - 70.0 °F 87% 29.98 in 10.0 mi NW 3.5 mph - N/A   Clear